Location: Central Falls
(41.8900°N, 71.3929°W)
Time: 12:57:59
(UTC+00:00)

A-11 Canister half - Pass Details

Date: 08 December 2023
Orbit: 1526 x 1682 km, 47.3° (Epoch: 20 February)

Event Time Altitude Azimuth Distance (km) Brightness Sun altitude
Rises 01:21:25 0° 268° (W) 4,931 12.4 -45.1°
Reaches altitude 10° 01:24:39 10° 272° (W) 3,944 11.7 -45.7°
Enters shadow 01:31:50 49° 296° (WNW) 2,073 9.7 -47.0°
Maximum altitude 01:34:45 66° 354° (N) 1,796 - -47.6°
Drops below altitude 10° 01:44:41 10° 76° (ENE) 3,877 - -49.4°
Sets 01:47:50 0° 79° (E) 4,844 - -49.9°
